Flag for Norway Weather past 2 weeks in Nærbø, Norway

Now
54 °F

Cool.


Feels Like: 54 °F
Forecast: 52 / 66 °F
Wind: 1 mph from Northwest

Location: Obrestad

Current Time: Aug 2, 2015 at 11:04:55 PM

Latest Report: Aug 2, 2015 at 10:00 PM


Visibility: N/A

Pressure: 30.12 "Hg

Humidity: 79%

Dew point: 47 °F

Location of NærbøLocation

Historic Weather in Nærbø — Graph

°F

Nærbø temperature yesterday

Maximum temperature yesterday: 58 °F (at 6:00 PM)
Minimum temperature yesterday: 49 °F (at 12:00 AM)
Average temperature yesterday: 54 °F

Past Weeks' High & Low Weather Summary

 TemperatureHumidityPressure
High61 °F (Jul 29, 4:00 PM)96% (Jul 29, 7:00 AM)30.10 "Hg (Jul 29, 7:00 AM)
Low48 °F (Jul 27, 7:00 AM)69% (Jul 23, 11:00 AM)29.38 "Hg (Jul 29, 8:00 AM)
Average55 °F84%29.72 "Hg
* Reported Jul 18 9:00 PM — Aug 2 9:00 PM, Nærbø, Weather by CustomWeather, © 2015

Note: Actual official high and low records may vary slightly from our data, if they occured in-between our weather recording intervals... More about our weather records

Advertising

Nærbø weather history for previous 24 hours

 ConditionsComfort  
Time TempWeatherWind HumidityBarometerVisibility
9:00 PM
Sun, Aug 2
57 °FCool.2 mph74%30.10 "HgN/A
8:00 PM58 °FCool.3 mph71%30.10 "HgN/A
7:00 PM58 °FCool.5 mph72%30.10 "HgN/A
6:00 PM59 °FCool.5 mph73%30.10 "HgN/A
5:00 PM59 °FCool.6 mph77%30.09 "HgN/A
4:00 PM60 °FCool.6 mph75%30.09 "HgN/A
3:00 PM60 °FCool.6 mph75%30.07 "HgN/A
2:00 PM60 °FCool.7 mph74%30.06 "HgN/A
1:00 PM59 °FCool.7 mph76%30.05 "HgN/A
12:00 PM59 °FCool.7 mph77%30.03 "HgN/A
11:00 AM58 °FCool.7 mph80%30.02 "HgN/A
10:00 AM58 °FCool.7 mph81%29.99 "HgN/A
9:00 AM57 °FCool.8 mph81%29.98 "HgN/A
8:00 AM56 °FCool.9 mph80%29.96 "HgN/A
7:00 AM56 °FCool.9 mph85%29.94 "HgN/A
6:00 AM56 °FCool.7 mph87%29.93 "HgN/A
5:00 AM56 °FCool.5 mph87%29.93 "HgN/A
4:00 AM56 °FCool.7 mph79%29.93 "HgN/A
3:00 AM55 °FCool.7 mph79%29.92 "HgN/A
2:00 AM56 °FCool.9 mph83%29.91 "HgN/A
1:00 AM56 °FCool.8 mph86%29.91 "HgN/A
12:00 AM56 °FCool.7 mph89%29.91 "HgN/A
Weather by CustomWeather, © 2015

See weather overviewHow to use our weather pages